H1 CPF 2 NER 2025 9 12 9 255 01 glonass142 H2 2001801 9142 45358 2025 9 12 0 0 0 2025 9 15 23 45 0 900 1 1 0 0 0 1 H9 10 0 60930 0.00000 0 21250261.456 -4490340.565 13421668.831 10 0 60930 900.00000 0 19645546.517 -3658509.989 15892382.058 10 0 60930 1800.00000 0 17871915.471 -2549426.286 18055282.102 10 0 60930 2700.00000 0 15992683.531 -1161788.227 19868494.384 10 0 60930 3600.00000 0 14072081.990 493122.732 21296898.944 10 0 60930 4500.00000 0 12172654.752 2391658.674 22312803.787 10 0 60930 5400.00000 0 10352743.799 4498542.455 22896477.457 10 0 60930 6300.00000 0 8664167.173 6768096.907 23036531.142 10 0 60930 7200.00000 0 7150185.096 9145916.707 22730143.144 10 0 60930 8100.00000 0 5843837.991 11570915.447 21983121.271 10 0 60930 9000.00000 0 4766724.940 13977664.847 20809801.386 10 0 60930 9900.00000 0 3928273.148 16298930.715 19232783.163 10 0 60930 10800.00000 0 3325528.766 18468301.736 17282506.941 10 0 60930 11700.00000 0 2943477.972 20422802.867 14996678.470 10 0 60930 12600.00000 0 2755885.140 22105384.983 12419551.246 10 0 60930 13500.00000 0 2726613.269 23467187.056 9601079.012 10 0 60930 14400.00000 0 2811371.401 24469475.923 6595953.775 10 0 60930 15300.00000 0 2959815.448 25085181.650 3462547.278 10 0 60930 16200.00000 0 3117913.548 25299963.108 261776.220 10 0 60930 17100.00000 0 3230475.315 25112757.878 -2944086.587 10 0 60930 18000.00000 0 3243737.001 24535792.282 -6092631.368 10 0 60930 18900.00000 0 3107891.709 23594050.276 -9122536.209 10 0 60930 19800.00000 0 2779455.856 22324222.964 -11974772.538 10 0 60930 20700.00000 0 2223369.847 20773182.797 -14593766.487 10 0 60930 21600.00000 0 1414742.149 18996046.840 -16928492.312 10 0 60930 22500.00000 0 340161.199 17053911.047 -18933475.483 10 0 60930 23400.00000 0 -1001481.911 15011351.540 -20569685.076 10 0 60930 24300.00000 0 -2598696.039 12933798.562 -21805297.575 10 0 60930 25200.00000 0 -4427631.552 10884894.016 -22616317.035 10 0 60930 26100.00000 0 -6452851.409 8923943.850 -22987039.629 10 0 60930 27000.00000 0 -8628599.928 7103572.150 -22910353.923 10 0 60930 27900.00000 0 -10900516.317 5467674.859 -22387871.593 10 0 60930 28800.00000 0 -13207721.290 4049758.040 -21429886.709 10 0 60930 29700.00000 0 -15485189.516 2871729.032 -20055165.102 10 0 60930 30600.00000 0 -17666308.698 1943189.500 -18290568.618 10 0 60930 31500.00000 0 -19685518.408 1261258.100 -16170522.238 10 0 60930 32400.00000 0 -21480918.547 810928.082 -13736335.046 10 0 60930 33300.00000 0 -22996738.824 565942.640 -11035388.780 10 0 60930 34200.00000 0 -24185566.488 490149.125 -8120210.229 10 0 60930 35100.00000 0 -25010239.907 539273.212 -5047445.941 10 0 60930 36000.00000 0 -25445329.671 663036.663 -1876759.486 10 0 60930 36900.00000 0 -25478146.286 807528.092 1330327.032 10 0 60930 37800.00000 0 -25109233.345 917725.854 4511624.574 10 0 60930 38700.00000 0 -24352326.667 940066.018 7605478.797 10 0 60930 39600.00000 0 -23233782.064 824946.881 10551958.590 10 0 60930 40500.00000 0 -21791496.474 529064.399 13294008.901 10 0 60930 41400.00000 0 -20073368.032 17480.237 15778546.176 10 0 60930 42300.00000 0 -18135359.595 -734664.491 17957475.998 10 0 60930 43200.00000 0 -16039246.271 -1740861.855 19788614.209 10 0 60930 44100.00000 0 -13850140.299 -3002430.451 21236494.755 10 0 60930 45000.00000 0 -11633895.452 -4508223.876 22273049.598 10 0 60930 45900.00000 0 -9454497.860 -6234867.585 22878148.418 10 0 60930 46800.00000 0 -7371550.495 -8147515.640 23039988.288 10 0 60930 47700.00000 0 -5437954.629 -10201097.542 22755326.033 10 0 60930 48600.00000 0 -3697883.526 -12342005.137 22029548.680 10 0 60930 49500.00000 0 -2185131.650 -14510151.384 20876580.079 10 0 60930 50400.00000 0 -921907.481 -16641317.207 19318624.602 10 0 60930 51300.00000 0 81880.204 -18669690.351 17385751.668 10 0 60930 52200.00000 0 828812.880 -20530491.778 15115327.727 10 0 60930 53100.00000 0 1333621.628 -22162580.815 12551305.278 10 0 60930 54000.00000 0 1622329.376 -23510930.502 9743381.360 10 0 60930 54900.00000 0 1730911.887 -24528869.351 6746040.714 10 0 60930 55800.00000 0 1703533.782 -25179994.839 3617501.497 10 0 60930 56700.00000 0 1590434.168 -25439677.260 418583.675 10 0 60930 57600.00000 0 1445551.680 -25296089.451 -2788477.755 10 0 60930 58500.00000 0 1323990.206 -24750717.746 -5941251.046 10 0 60930 59400.00000 0 1279433.793 -23818331.401 -8978332.840 10 0 60930 60300.00000 0 1361621.690 -22526410.788 -11840555.205 10 0 60930 61200.00000 0 1613992.169 -20914057.794 -14472149.702 10 0 60930 62100.00000 0 2071596.682 -19030434.013 -16821844.652 10 0 60930 63000.00000 0 2759374.354 -16932792.470 -18843873.099 10 0 60930 63900.00000 0 3690861.364 -14684185.991 -20498871.024 10 0 60930 64800.00000 0 4867391.098 -12350948.929 -21754647.770 10 0 60930 65700.00000 0 6277819.910 -10000058.377 -22586813.513 10 0 60930 66600.00000 0 7898790.811 -7696485.875 -22979251.639 10 0 60930 67500.00000 0 9695524.540 -5500650.594 -22924427.197 10 0 60930 68400.00000 0 11623105.039 -3466080.346 -22423525.982 10 0 60930 69300.00000 0 13628205.464 -1637377.574 -21486422.192 10 0 60930 70200.00000 0 15651182.323 -48574.332 -20131475.997 10 0 60930 71100.00000 0 17628449.938 1278056.499 -18385165.669 10 0 60930 72000.00000 0 19495035.648 2332685.831 -16281562.099 10 0 60930 72900.00000 0 21187208.806 3118082.303 -13861656.539 10 0 60930 73800.00000 0 22645073.586 3649231.354 -11172555.181 10 0 60930 74700.00000 0 23815017.297 3952437.709 -8266556.760 10 0 60930 75600.00000 0 24651912.103 4063951.193 -5200131.525 10 0 60930 76500.00000 0 25120978.557 4028175.659 -2032821.774 10 0 60930 77400.00000 0 25199233.586 3895538.070 1173914.406 10 0 60930 78300.00000 0 24876463.130 3720108.844 4357893.612 10 0 60930 79200.00000 0 24155679.537 3557074.622 7457408.729 10 0 60930 80100.00000 0 23053045.351 3460170.505 10412418.546 10 0 60930 81000.00000 0 21597267.293 3479180.186 13165702.747 10 0 60930 81900.00000 0 19828486.158 3657609.187 15663960.551 10 0 60930 82800.00000 0 17796709.063 4030629.008 17858832.523 10 0 60930 83700.00000 0 15559849.169 4623378.442 19707826.762 10 0 60930 84600.00000 0 13181453.895 5449693.446 21175132.600 10 0 60930 85500.00000 0 10728215.267 6511319.093 22232307.051 10 0 60931 0.00000 0 8267364.877 7797637.147 22858821.594 10 0 60931 900.00000 0 5864059.005 9285922.441 23042459.563 10 0 60931 1800.00000 0 3578864.360 10942116.997 22779556.050 10 0 60931 2700.00000 0 1465443.109 12722093.576 22075076.641 10 0 60931 3600.00000 0 -431464.571 14573356.193 20942532.045 10 0 60931 4500.00000 0 -2077678.744 16437109.210 19403729.763 10 0 60931 5400.00000 0 -3450771.054 18250610.348 17488366.332 10 0 60931 6300.00000 0 -4540759.797 19949710.863 15233466.621 10 0 60931 7200.00000 0 -5350279.803 21471477.726 12682679.606 10 0 60931 8100.00000 0 -5894219.938 22756788.618 9885442.921 10 0 60931 9000.00000 0 -6198843.313 23752790.947 6896031.253 10 0 60931 9900.00000 0 -6300427.088 24415121.138 3772506.324 10 0 60931 10800.00000 0 -6243479.274 24709789.893 575588.524 10 0 60931 11700.00000 0 -6078608.152 24614652.808 -2632527.770 10 0 60931 12600.00000 0 -5860135.010 24120402.873 -5789391.535 10 0 60931 13500.00000 0 -5643552.237 23231041.580 -8833520.534 10 0 60931 14400.00000 0 -5482935.672 21963807.396 -11705609.823 10 0 60931 15300.00000 0 -5428422.332 20348563.567 -14349698.507 10 0 60931 16200.00000 0 -5523861.969 18426670.273 -16714270.804 10 0 60931 17100.00000 0 -5804743.484 16249388.233 -18753268.885 10 0 60931 18000.00000 0 -6296485.439 13875880.789 -20426996.892 10 0 60931 18900.00000 0 -7013164.202 11370898.572 -21702898.016 10 0 60931 19800.00000 0 -7956734.465 8802244.093 -22556189.256 10 0 60931 20700.00000 0 -9116775.731 6238122.804 -22970341.626 10 0 60931 21600.00000 0 -10470775.871 3744491.561 -22937396.751 10 0 60931 22500.00000 0 -11984940.027 1382515.203 -22458114.296 10 0 60931 23400.00000 0 -13615490.776 -793762.945 -21541947.957 10 0 60931 24300.00000 0 -15310404.808 -2739440.260 -20206851.234 10 0 60931 25200.00000 0 -17011512.940 -4420380.666 -18478917.440 10 0 60931 26100.00000 0 -18656875.091 -5814380.869 -16391861.660 10 0 60931 27000.00000 0 -20183330.361 -6911830.237 -13986355.323 10 0 60931 27900.00000 0 -21529115.164 -7715838.966 -11309226.898 10 0 60931 28800.00000 0 -22636439.558 -8241831.450 -8412544.753 10 0 60931 29700.00000 0 -23453913.915 -8516624.316 -5352600.463 10 0 60931 30600.00000 0 -23938724.432 -8577029.987 -2188812.636 10 0 60931 31500.00000 0 -24058466.710 -8468046.446 1017427.106 10 0 60931 32400.00000 0 -23792561.065 -8240710.974 4203943.467 10 0 60931 33300.00000 0 -23133190.844 -7949709.422 7308979.054 10 0 60931 34200.00000 0 -22085725.036 -7650842.478 10272385.068 10 0 60931 35100.00000 0 -20668607.918 -7398456.049 13036778.416 10 0 60931 36000.00000 0 -18912720.635 -7242943.956 15548643.498 10 0 60931 36900.00000 0 -16860241.338 -7228427.870 17759358.119 10 0 60931 37800.00000 0 -14563051.115 -7390711.736 19626124.658 10 0 60931 38700.00000 0 -12080751.371 -7755596.349 21112789.543 10 0 60931 39600.00000 0 -9478374.170 -8337624.747 22190536.178 10 0 60931 40500.00000 0 -6823879.355 -9139311.203 22838438.819 10 0 60931 41400.00000 0 -4185540.862 -10150886.727 23043867.329 10 0 60931 42300.00000 0 -1629329.126 -11350572.687 22802735.263 10 0 60931 43200.00000 0 783603.357 -12705372.477 22119586.421 10 0 60931 44100.00000 0 2999230.377 -14172349.788 21007517.653 10 0 60931 45000.00000 0 4972659.512 -15700341.809 19487938.534 10 0 60931 45900.00000 0 6669756.170 -17232037.495 17590171.346 10 0 60931 46800.00000 0 8068317.067 -18706335.520 15350897.706 10 0 60931 47700.00000 0 9158744.384 -20060884.379 12813461.113 10 0 60931 48600.00000 0 9944192.445 -21234698.889 10027037.584 10 0 60931 49500.00000 0 10440180.621 -22170743.479 7045689.298 10 0 60931 50400.00000 0 10673688.592 -22818373.303 3927318.910 10 0 60931 51300.00000 0 10681772.024 -23135529.600 732544.469 10 0 60931 52200.00000 0 10509757.210 -23090595.528 -2476483.099 10 0 60931 53100.00000 0 10209091.382 -22663832.676 -5637296.345 10 0 60931 54000.00000 0 9834940.399 -21848335.982 -8688336.949 10 0 60931 54900.00000 0 9443636.534 -20650465.149 -11570165.680 10 0 60931 55800.00000 0 9090085.749 -19089732.925 -14226631.783 10 0 60931 56700.00000 0 8825245.698 -17198153.816 -16605977.796 10 0 60931 57600.00000 0 8693782.685 -15019079.812 -18661857.203 10 0 60931 58500.00000 0 8732008.136 -12605571.664 -20354244.204 10 0 60931 59400.00000 0 8966182.986 -10018373.928 -21650217.346 10 0 60931 60300.00000 0 9411262.546 -7323578.728 -22524601.550 10 0 60931 61200.00000 0 10070135.455 -4590076.208 -22960456.085 10 0 60931 62100.00000 0 10933389.064 -1886898.418 -22949399.325 10 0 60931 63000.00000 0 11979611.195 719432.520 -22491764.521 10 0 60931 63900.00000 0 13176215.349 3167441.518 -21596584.178 10 0 60931 64800.00000 0 14480754.241 5403017.733 -20281404.055 10 0 60931 65700.00000 0 15842666.012 7381416.261 -18571931.110 10 0 60931 66600.00000 0 17205379.167 9068862.141 -16501522.906 10 0 60931 67500.00000 0 18508687.342 10443691.501 -14110529.050 10 0 60931 68400.00000 0 19691293.757 11496984.190 -11445498.004 10 0 60931 69300.00000 0 20693418.146 12232663.675 -8558265.243 10 0 60931 70200.00000 0 21459356.571 12667062.343 -5504940.907 10 0 60931 71100.00000 0 21939886.637 12827972.722 -2344817.002 10 0 60931 72000.00000 0 22094417.268 12753226.553 860784.313 10 0 60931 72900.00000 0 21892793.131 12488863.252 4049698.850 10 0 60931 73800.00000 0 21316678.359 12086966.254 7160121.860 10 0 60931 74700.00000 0 20360461.941 11603259.265 10131799.704 10 0 60931 75600.00000 0 19031647.159 11094564.191 12907189.056 10 0 60931 76500.00000 0 17350708.889 10616227.842 15432561.788 10 0 60931 77400.00000 0 15350424.631 10219625.514 17659034.968 10 0 60931 78300.00000 0 13074706.767 9949845.972 19543506.993 10 0 60931 79200.00000 0 10576983.918 9843654.600 21049482.833 10 0 60931 80100.00000 0 7918197.670 9927819.810 22147773.410 10 0 60931 81000.00000 0 5164496.540 10217872.639 22817056.506 10 0 60931 81900.00000 0 2384721.254 10717351.621 23044289.009 10 0 60931 82800.00000 0 -352215.993 11417565.029 22824962.823 10 0 60931 83700.00000 0 -2979951.379 12297881.304 22163199.442 10 0 60931 84600.00000 0 -5437181.280 13326536.749 21071680.839 10 0 60931 85500.00000 0 -7669963.189 14461928.133 19571417.157 10 0 60932 0.00000 0 -9633710.965 15654337.562 17691354.647 10 0 60932 900.00000 0 -11294803.131 16848019.501 15467828.998 10 0 60932 1800.00000 0 -12631734.882 17983562.088 12943875.754 10 0 60932 2700.00000 0 -13635769.285 19000426.615 10168406.487 10 0 60932 3600.00000 0 -14311057.542 19839557.256 7195267.959 10 0 60932 4500.00000 0 -14674224.158 20445951.664 4082200.823 10 0 60932 5400.00000 0 -14753434.090 20771083.339 889717.892 10 0 60932 6300.00000 0 -14586981.145 20775072.434 -2320076.171 10 0 60932 7200.00000 0 -14221457.446 20428511.820 -5484700.188 10 0 60932 8100.00000 0 -13709581.832 19713869.604 -8542522.321 10 0 60932 9000.00000 0 -13107779.878 18626407.024 -11433971.424 10 0 60932 9900.00000 0 -12473619.042 17174571.317 -14102709.026 10 0 60932 10800.00000 0 -11863208.747 15379845.475 -16496737.872 10 0 60932 11700.00000 0 -11328676.754 13276060.036 -18569424.349 10 0 60932 12600.00000 0 -10915829.828 10908195.019 -20280413.983 10 0 60932 13500.00000 0 -10662098.668 8330721.825 -21596421.638 10 0 60932 14400.00000 0 -10594854.746 5605554.376 -22491880.791 10 0 60932 15300.00000 0 -10730170.580 2799695.253 -22949439.269 10 0 60932 16200.00000 0 -11072075.892 -17324.719 -22960292.163 10 0 60932 17100.00000 0 -11612340.836 -2776106.574 -22524345.927 10 0 60932 18000.00000 0 -12330795.002 -5410032.153 -21650211.122 10 0 60932 18900.00000 0 -13196168.117 -7857791.885 -20355024.653 10 0 60932 19800.00000 0 -14167416.314 -10065686.808 -18664105.657 10 0 60932 20700.00000 0 -15195477.366 -11989609.898 -16610452.408 10 0 60932 21600.00000 0 -16225380.237 -13596625.540 -14234090.669 10 0 60932 22500.00000 0 -17198619.543 -14866082.970 -11581286.699 10 0 60932 23400.00000 0 -18055694.430 -15790219.167 -8703640.771 10 0 60932 24300.00000 0 -18738704.688 -16374228.135 -5657079.237 10 0 60932 25200.00000 0 -19193894.643 -16635795.910 -2500765.135 10 0 60932 26100.00000 0 -19374037.809 -16604122.905 704051.212 10 0 60932 27000.00000 0 -19240562.113 -16318476.569 3895219.094 10 0 60932 27900.00000 0 -18765326.600 -15826336.775 7010888.775 10 0 60932 28800.00000 0 -17931975.256 -15181213.094 9990704.163 10 0 60932 29700.00000 0 -16736811.340 -14440226.532 12776964.053 10 0 60932 30600.00000 0 -15189155.653 -13661557.662 15315730.092 10 0 60932 31500.00000 0 -13311173.577 -12901868.364 17557860.785 10 0 60932 32400.00000 0 -11137177.663 -12213805.026 19459952.535 10 0 60932 33300.00000 0 -8712433.998 -11643687.431 20985170.576 10 0 60932 34200.00000 0 -6091520.955 -11229479.574 22103954.756 10 0 60932 35100.00000 0 -3336307.061 -10999126.900 22794587.428 10 0 60932 36000.00000 0 -513630.233 -10969329.232 23043613.164 10 0 60932 36900.00000 0 2307227.146 -11144800.735 22846102.482 10 0 60932 37800.00000 0 5057164.486 -11518048.233 22205754.453 10 0 60932 38700.00000 0 7669883.454 -12069677.862 21134835.701 10 0 60932 39600.00000 0 10084395.401 -12769218.270 19653956.103 10 0 60932 40500.00000 0 12247312.845 -13576427.119 17791684.345 10 0 60932 41400.00000 0 14114830.544 -14443027.404 15584009.347 10 0 60932 42300.00000 0 15654314.037 -15314801.913 13073656.543 10 0 60932 43200.00000 0 16845429.440 -16133958.723 10309270.862 10 0 60932 44100.00000 0 17680767.066 -16841668.753 7344481.114 10 0 60932 45000.00000 0 18165932.377 -17380668.459 4236863.132 10 0 60932 45900.00000 0 18319100.102 -17697817.403 1046821.452 10 0 60932 46800.00000 0 18170050.047 -17746501.738 -2163588.705 10 0 60932 47700.00000 0 17758725.213 -17488780.601 -5331875.648 10 0 60932 48600.00000 0 17133373.350 -16897183.006 -8396337.166 10 0 60932 49500.00000 0 16348351.023 -15956077.380 -11297273.214 10 0 60932 50400.00000 0 15461683.921 -14662554.021 -13978160.406 10 0 60932 51300.00000 0 14532487.583 -13026781.480 -16386764.236 10 0 60932 52200.00000 0 13618358.821 -11071820.315 -18476166.233 10 0 60932 53100.00000 0 12772849.213 -8832900.875 -20205685.143 10 0 60932 54000.00000 0 12043128.416 -6356194.651 -21541673.648 10 0 60932 54900.00000 0 11467936.677 -3697130.162 -22458174.835 10 0 60932 55800.00000 0 11075913.359 -918323.680 -22937425.700 10 0 60932 56700.00000 0 10884371.975 1912788.784 -22970198.172 10 0 60932 57600.00000 0 10898573.047 4726519.403 -22555971.571 10 0 60932 58500.00000 0 11111524.767 7453589.311 -21702933.736 10 0 60932 59400.00000 0 11504318.981 10027771.572 -20427811.538 10 0 60932 60300.00000 0 12046987.271 12388406.695 -18755534.739 10 0 60932 61200.00000 0 12699839.988 14482686.610 -16718740.446 10 0 60932 62100.00000 0 13415230.704 16267612.987 -14357128.397 10 0 60932 63000.00000 0 14139670.787 17711549.639 -11716680.199 10 0 60932 63900.00000 0 14816204.091 18795305.841 -8848758.226 10 0 60932 64800.00000 0 15386941.076 19512707.205 -5809102.156 10 0 60932 65700.00000 0 15795645.082 19870632.270 -2656743.026 10 0 60932 66600.00000 0 15990261.549 19888515.284 547143.765 10 0 60932 67500.00000 0 15925283.589 19597337.962 3740424.042 10 0 60932 68400.00000 0 15563854.409 19038154.224 6861206.039 10 0 60932 69300.00000 0 14879518.281 18260211.182 9849033.976 10 0 60932 70200.00000 0 13857546.639 17318746.229 12646051.297 10 0 60932 71100.00000 0 12495783.670 16272553.196 15198111.682 10 0 60932 72000.00000 0 10804975.785 15181419.801 17455817.047 10 0 60932 72900.00000 0 8808570.755 14103543.544 19375463.486 10 0 60932 73800.00000 0 6541994.047 13093033.727 20919877.893 10 0 60932 74700.00000 0 4051431.447 12197603.487 22059130.119 10 0 60932 75600.00000 0 1392167.080 11456547.593 22771107.833 10 0 60932 76500.00000 0 -1373455.853 10899089.890 23041943.653 10 0 60932 77400.00000 0 -4178368.889 10543169.066 22866286.660 10 0 60932 78300.00000 0 -6953311.851 10394713.299 22247412.977 10 0 60932 79200.00000 0 -9629462.976 10447434.369 21197172.850 10 0 60932 80100.00000 0 -12141058.149 10683150.365 19735774.362 10 0 60932 81000.00000 0 -14427891.882 11072624.313 17891406.799 10 0 60932 81900.00000 0 -16437597.024 11576884.550 15699709.533 10 0 60932 82800.00000 0 -18127608.799 12148972.412 13203095.252 10 0 60932 83700.00000 0 -19466731.353 12736044.642 10449939.238 10 0 60932 84600.00000 0 -20436241.132 13281742.566 7493649.227 10 0 60932 85500.00000 0 -21030480.386 13728728.333 4391633.104 10 0 60933 0.00000 0 -21256915.354 14021280.808 1204184.348 10 0 60933 900.00000 0 -21135656.238 14107840.758 -2006694.772 10 0 60933 1800.00000 0 -20698458.624 13943396.051 -5178504.559 10 0 60933 2700.00000 0 -19987248.813 13491604.891 -8249475.046 10 0 60933 3600.00000 0 -19052235.176 12726564.949 -11159779.699 10 0 60933 4500.00000 0 -17949686.069 11634151.826 -13852712.409 10 0 60933 5400.00000 0 -16739468.973 10212868.350 -16275803.332 10 0 60933 6300.00000 0 -15482455.786 8474167.145 -18381850.736 10 0 60933 7200.00000 0 -14237904.868 6442231.428 -20129847.828 10 0 60933 8100.00000 0 -13060931.231 4153222.091 -21485785.958 10 0 60933 9000.00000 0 -12000172.265 1654021.897 -22423318.292 10 0 60933 9900.00000 0 -11095747.771 -999471.092 -22924271.050 10 0 60933 10800.00000 0 -10377600.218 -3744429.694 -22978992.675 10 0 60933 11700.00000 0 -9864284.680 -6513476.383 -22586534.640 10 0 60933 12600.00000 0 -9562258.634 -9237255.405 -21754660.990 10 0 60933 13500.00000 0 -9465700.385 -11847091.115 -20499687.147 10 0 60933 14400.00000 0 -9556862.444 -14277622.015 -18846151.792 10 0 60933 15300.00000 0 -9806943.555 -16469301.167 -16826328.897 10 0 60933 16200.00000 0 -10177441.141 -18370659.498 -14479590.034 10 0 60933 17100.00000 0 -10621925.828 -19940238.661 -11851629.898 10 0 60933 18000.00000 0 -11088161.987 -21148114.053 -8993570.672 10 0 60933 18900.00000 0 -11520483.857 -21976945.948 -5960963.082 10 0 60933 19800.00000 0 -11862326.251 -22422516.519 -2812703.945 10 0 60933 20700.00000 0 -12058802.581 -22493732.086 390108.413 10 0 60933 21600.00000 0 -12059221.188 -22212092.293 3585358.456 10 0 60933 22500.00000 0 -11819433.840 -21610650.123 6711114.447 10 0 60933 23400.00000 0 -11303917.496 -20732507.745 9706822.954 10 0 60933 24300.00000 0 -10487501.852 -19628912.330 12514474.102 10 0 60933 25200.00000 0 -9356670.094 -18357032.304 15079715.590 10 0 60933 26100.00000 0 -7910378.152 -16977507.445 17352894.668 10 0 60933 27000.00000 0 -6160357.773 -15551875.206 19290008.925 10 0 60933 27900.00000 0 -4130890.014 -14139980.394 20853548.537 10 0 60933 28800.00000 0 -1858057.561 -12797475.722 22013214.760 10 0 60933 29700.00000 0 611494.426 -11573516.701 22746501.709 10 0 60933 30600.00000 0 3222239.140 -10508746.177 23039130.887 10 0 60933 31500.00000 0 5911822.753 -9633651.867 22885330.446 10 0 60933 32400.00000 0 8613409.602 -8967364.870 22287953.758 10 0 60933 33300.00000 0 11258222.669 -8516949.066 21258434.551 10 0 60933 34200.00000 0 13778175.722 -8277211.188 19816578.641 10 0 60933 35100.00000 0 16108489.322 -8231039.894 17990195.104 10 0 60933 36000.00000 0 18190183.083 -8350260.239 15814572.600 10 0 60933 36900.00000 0 19972341.010 -8596968.454 13331809.538 10 0 60933 37800.00000 0 21414055.646 -8925291.626 10590009.630 10 0 60933 38700.00000 0 22485969.534 -9283498.740 7642357.235 10 0 60933 39600.00000 0 23171348.918 -9616374.299 4546089.615 10 0 60933 40500.00000 0 23466643.890 -9867754.118 1361385.638 10 0 60933 41400.00000 0 23381510.727 -9983115.459 -1849807.447 10 0 60933 42300.00000 0 22938294.786 -9912110.822 -5024985.826 10 0 60933 43200.00000 0 22170995.384 -9610936.662 -8102315.108 10 0 60933 44100.00000 0 21123756.175 -9044434.986 -11021845.489 10 0 60933 45000.00000 0 19848944.988 -8187836.936 -13726691.153 10 0 60933 45900.00000 0 18404904.672 -7028072.682 -16164149.661 10 0 60933 46800.00000 0 16853470.606 -5564590.416 -18286738.450 10 0 60933 47700.00000 0 15257360.450 -3809648.261 -20053127.280 10 0 60933 48600.00000 0 13677547.003 -1788065.444 -21428947.892 10 0 60933 49500.00000 0 12170725.472 463557.854 -22387464.862 10 0 60933 50400.00000 0 10786982.168 2898119.937 -22910094.546 10 0 60933 51300.00000 0 9567762.708 5459743.160 -22986762.371 10 0 60933 52200.00000 0 8544224.732 8085873.693 -22616091.982 10 0 60933 53100.00000 0 7736043.564 10709667.808 -21805423.188 10 0 60933 54000.00000 0 7150719.810 13262565.175 -20570659.074 10 0 60933 54900.00000 0 6783416.499 15676941.939 -18935945.919 10 0 60933 55800.00000 0 6617330.913 17888733.146 -16933192.839 10 0 60933 56700.00000 0 6624583.685 19839915.605 -14601441.133 10 0 60933 57600.00000 0 6767585.931 21480748.270 -11986096.137 10 0 60933 58500.00000 0 7000825.220 22771677.525 -9138037.088 10 0 60933 59400.00000 0 7272993.617 23684828.981 -6112622.752 10 0 60933 60300.00000 0 7529366.891 24205024.787 -2968612.532 10 0 60933 61200.00000 0 7714333.633 24330285.415 232975.615 10 0 60933 62100.00000 0 7773967.005 24071796.489 3430048.096 10 0 60933 63000.00000 0 7658530.324 23453343.544 6560636.412 10 0 60933 63900.00000 0 7324810.763 22510239.764 9564092.521 10 0 60933 64800.00000 0 6738182.892 21287792.638 12382256.021 10 0 60933 65700.00000 0 5874315.296 19839374.486 14960571.147 10 0 60933 66600.00000 0 4720448.517 18224177.882 17249132.693 10 0 60933 67500.00000 0 3276190.472 16504749.745 19203641.629 10 0 60933 68400.00000 0 1553795.509 14744406.597 20786252.991 10 0 60933 69300.00000 0 -422085.484 13004638.121 21966300.681 10 0 60933 70200.00000 0 -2615174.744 11342606.282 22720886.142 10 0 60933 71100.00000 0 -4978826.683 9808843.140 23035320.257 10 0 60933 72000.00000 0 -7457725.823 8445242.269 22903410.319 10 0 60933 72900.00000 0 -9989955.128 7283426.564 22327586.526 10 0 60933 73800.00000 0 -12509350.927 6343559.826 21318865.164 10 0 60933 74700.00000 0 -14948048.532 5633651.391 19896648.315 10 0 60933 75600.00000 0 -17239114.457 5149382.811 18088362.852 10 0 60933 76500.00000 0 -19319157.024 4874464.086 15928944.243 10 0 60933 77400.00000 0 -21130807.410 4781504.955 13460173.729 10 0 60933 78300.00000 0 -22624967.920 4833365.189 10729880.254 10 0 60933 79200.00000 0 -23762733.357 4984927.468 7791021.409 10 0 60933 80100.00000 0 -24516904.414 5185218.424 4700660.378 10 0 60933 81000.00000 0 -24873028.759 5379788.158 1518858.286 10 0 60933 81900.00000 0 -24829925.096 5513247.205 -1692496.513 10 0 60933 82800.00000 0 -24399667.155 5531852.640 -4870898.945 10 0 60933 83700.00000 0 -23607027.534 5386032.542 -7954453.112 10 0 60933 84600.00000 0 -22488404.315 5032740.232 -10883088.638 10 0 60933 85500.00000 0 -21090275.566 4437536.758 -13599742.411 99